Weather History for KCLE - March, 2013

Change the Weather History Date:

Thursday, March 28, 2013

  Actual Average Record
Temperature  
Mean Temperature 39 °F 43 °F  
Max Temperature 43 °F 51 °F 80 °F (1945)
Min Temperature 34 °F 34 °F 9 °F (1982)
Degree Days  
Heating Degree Days 26 22  
Month to date heating degree days 893 759  
Since 1 July heating degree days 5072 4976  
Cooling Degree Days 0 0  
Month to date cooling degree days 0 0  
Year to date cooling degree days 0 0  
Moisture  
Dew Point 28 °F    
Average Humidity 66    
Maximum Humidity 75    
Minimum Humidity 57    
Precipitation  
Precipitation T in 0.11 in 1.71 in (1985)
Month to date precipitation 2.18 2.60  
Year to date precipitation 6.65 7.66  
Snow  
Snow T in 0.30 in - ()
Month to date snowfall 10.7 11.8  
Since 1 July snowfall 51.4 64.0  
Snow Depth 0.00 in    
Sea Level Pressure  
Sea Level Pressure 30.26 in    
Wind  
Wind Speed 8 mph (West)    
Max Wind Speed 24 mph    
Max Gust Speed 29 mph    
Visibility 10 miles    
Events Snow    
T = Trace of Precipitation, MM = Missing Value Source: NWS Daily Summary

Daily Weather History Graph

Daily Weather History Graph

Search for Another Location

Airport or City:

Trip Planner

Search our weather history database for the weather conditions in past years. The results will help you decide how hot, cold, wet, or windy it might be!

Date:

Astronomy

Mar. 28, 2013 Rise Set
Actual Time 7:16 AM EDT 7:48 PM EDT
Civil Twilight 6:49 AM EDT 8:16 PM EDT
Nautical Twilight 6:16 AM EDT 8:49 PM EDT
Astronomical Twilight 5:42 AM EDT 9:23 PM EDT
Moon 9:40 PM EDT (3/28) 7:42 AM EDT (3/28)
Length of Visible Light 13h 27m
Length of Day
12h 31m
Full, 98% of the Moon is Illuminated
Mar 28
Full
Apr 3
Last Quarter
Apr 10
New
Apr 18
First Quarter
Apr 25
Full

Hourly Weather History & Observations

Time (EDT) Temp. Windchill Dew Point Humidity Pressure Visibility Wind Dir Wind Speed Gust Speed Precip Events Conditions
12:51 AM 37.4 °F 28.5 °F 26.6 °F 65% 30.18 in 10.0 mi WNW 15.0 mph - N/A   Overcast
1:51 AM 37.0 °F 28.5 °F 26.1 °F 65% 30.20 in 9.0 mi West 13.8 mph 24.2 mph 0.00 in Snow Light Snow
2:51 AM 36.0 °F 27.1 °F 27.0 °F 70% 30.21 in 9.0 mi WNW 13.8 mph - 0.00 in Snow Light Snow
3:51 AM 35.1 °F 27.4 °F 27.0 °F 72% 30.20 in 10.0 mi WNW 10.4 mph - 0.00 in   Overcast
4:51 AM 35.1 °F 27.9 °F 27.0 °F 72% 30.21 in 10.0 mi WNW 9.2 mph - N/A   Overcast
5:51 AM 35.1 °F 26.9 °F 27.0 °F 72% 30.21 in 10.0 mi WNW 11.5 mph - N/A   Overcast
6:51 AM 34.0 °F 25.0 °F 26.1 °F 73% 30.23 in 10.0 mi WNW 12.7 mph - N/A   Mostly Cloudy
7:51 AM 34.0 °F 26.0 °F 26.1 °F 73% 30.25 in 10.0 mi WNW 10.4 mph - N/A   Mostly Cloudy
8:51 AM 33.8 °F 24.8 °F 26.6 °F 75% 30.24 in 10.0 mi West 12.7 mph - N/A   Mostly Cloudy
9:51 AM 35.1 °F 25.9 °F 27.0 °F 72% 30.27 in 10.0 mi WNW 13.8 mph - N/A   Overcast
10:51 AM 36.0 °F 27.5 °F 28.0 °F 73% 30.29 in 10.0 mi West 12.7 mph - N/A   Overcast
12:51 PM 39.0 °F 35.7 °F 28.0 °F 65% 30.30 in 10.0 mi NW 4.6 mph - N/A   Overcast
1:51 PM 41.0 °F 35.8 °F 28.9 °F 62% 30.29 in 10.0 mi WNW 8.1 mph - N/A   Overcast
2:51 PM 41.0 °F 35.2 °F 28.9 °F 62% 30.29 in 10.0 mi WNW 9.2 mph - N/A   Overcast
3:51 PM 42.1 °F 37.7 °F 28.9 °F 60% 30.28 in 10.0 mi Variable 6.9 mph - N/A   Overcast
4:51 PM 43.0 °F 37.7 °F 28.9 °F 58% 30.27 in 10.0 mi WNW 9.2 mph - N/A   Overcast
5:51 PM 42.1 °F 37.7 °F 28.9 °F 60% 30.28 in 10.0 mi West 6.9 mph - N/A   Mostly Cloudy
6:51 PM 43.0 °F 40.3 °F 28.9 °F 58% 30.28 in 10.0 mi West 4.6 mph - N/A   Mostly Cloudy
7:51 PM 41.0 °F 38.0 °F 28.0 °F 60% 30.28 in 10.0 mi WSW 4.6 mph - N/A   Overcast
8:51 PM 41.0 °F - 28.0 °F 60% 30.29 in 10.0 mi Calm Calm - N/A   Overcast
9:51 PM 41.0 °F 39.0 °F 30.0 °F 65% 30.29 in 10.0 mi SSE 3.5 mph - N/A   Overcast
10:51 PM 41.0 °F 39.0 °F 28.9 °F 62% 30.29 in 10.0 mi SSE 3.5 mph - N/A   Overcast
11:51 PM 39.9 °F 35.8 °F 28.9 °F 65% 30.29 in 10.0 mi South 5.8 mph - N/A   Mostly Cloudy